CW4611 Weather Reports


time (UTC)temp
C
wind
direction
speed
KPH
gust
KPH
rain 1hr
cm
rain 24hr
cm
rain mn
cm
humidity
%
barometer
mb
20240614131605 13 8 3.2 9.7 0.00 0.00 0.00 51 1011.8
20240614131104 13 11 6.4 14.5 0.00 0.00 0.00 50 1011.8
20240614130604 13 9 4.8 8.0 0.00 0.00 0.00 52 1011.7
20240614130106 12 10 1.6 4.8 0.00 0.00 0.00 54 1011.8
20240614124604 13 9 3.2 4.8 0.00 0.00 0.00 47 1011.7
20240614124104 14 9 3.2 9.7 0.00 0.00 0.00 46 1011.6
20240614123105 14 73 6.4 16.1 0.00 0.00 0.00 40 1011.4
20240614121605 13 51 3.2 9.7 0.00 0.00 0.00 44 1011.5
20240614121104 13 36 4.8 9.7 0.00 0.00 0.00 44 1011.4
20240614120606 13 42 4.8 8.0 0.00 0.00 0.00 42 1011.4
20240614120104 14 49 3.2 8.0 0.00 0.00 0.00 42 1011.3
20240614114604 15 41 3.2 9.7 0.00 0.00 0.00 37 1011.2
20240614114104 16 47 3.2 4.8 0.00 0.00 0.00 35 1011.2
20240614113105 17 63 3.2 19.3 0.00 0.00 0.00 31 1011.2
20240614111605 17 83 4.8 14.5 0.00 0.00 0.00 30 1011.3
20240614111104 17 33 6.4 19.3 0.00 0.00 0.00 30 1011.2
20240614110605 17 98 11.3 20.9 0.00 0.00 0.00 29 1011.2
20240614110104 18 125 11.3 22.5 0.00 0.00 0.00 28 1011.3
20240614104605 17 170 9.7 25.7 0.00 0.00 0.00 28 1011.4
20240614104104 17 195 6.4 22.5 0.00 0.00 0.00 28 1011.4
20240614103604 17 207 3.2 11.3 0.00 0.00 0.00 28 1011.4
20240614101604 18 189 4.8 16.1 0.00 0.00 0.00 27 1011.4
20240614101104 18 189 4.8 12.9 0.00 0.00 0.00 27 1011.4
20240614100605 18 217 3.2 8.0 0.00 0.00 0.00 27 1011.3
20240614100105 18 208 3.2 16.1 0.00 0.00 0.00 28 1011.3
20240614094604 18 192 3.2 11.3 0.00 0.00 0.00 27 1011.4
20240614094104 17 217 4.8 19.3 0.00 0.00 0.00 27 1011.5
20240614093604 17 163 3.2 8.0 0.00 0.00 0.00 28 1011.7
20240614091605 17 24 1.6 3.2 0.00 0.00 0.00 30 1011.5
20240614090105 17 4 4.8 9.7 0.00 0.00 0.00 29 1011.5
20240614084106 17 280 3.2 4.8 0.00 0.00 0.00 28 1011.6
20240614064605 15 26 1.6 4.8 0.00 0.00 0.00 29 1011.9
20240614064104 15 3 4.8 4.8 0.00 0.00 0.00 29 1011.8
20240614063604 15 205 1.6 4.8 0.00 0.00 0.00 35 1011.9
20240614061604 15 61 3.2 8.0 0.00 0.00 0.00 32 1012.0
20240614061106 15 19 4.8 8.0 0.00 0.00 0.00 33 1011.9
20240614060604 15 29 4.8 8.0 0.00 0.00 0.00 33 1011.9
20240614060104 15 18 4.8 8.0 0.00 0.00 0.00 32 1012.0
20240614054604 16 27 4.8 8.0 0.00 0.00 0.00 31 1011.8
20240614054104 16 36 3.2 8.0 0.00 0.00 0.00 30 1011.7
20240614053604 16 43 3.2 4.8 0.00 0.00 0.00 29 1011.7
20240614053106 17 47 4.8 12.9 0.00 0.00 0.00 26 1011.7
20240614051104 17 56 4.8 8.0 0.00 0.00 0.00 28 1011.7
20240614050604 17 49 3.2 9.7 0.00 0.00 0.00 27 1011.7
20240614050104 17 75 4.8 9.7 0.00 0.00 0.00 28 1011.7
20240614044604 17 46 3.2 8.0 0.00 0.00 0.00 29 1011.7
20240614044104 16 66 4.8 11.3 0.00 0.00 0.00 29 1011.6
20240614043604 16 51 4.8 8.0 0.00 0.00 0.00 33 1011.6
20240614043105 17 52 3.2 11.3 0.00 0.00 0.00 30 1011.7
20240614041604 17 9 3.2 4.8 0.00 0.00 0.00 32 1011.3
20240614040604 16 10 3.2 4.8 0.00 0.00 0.00 33 1011.2
20240614040105 16 10 3.2 9.7 0.00 0.00 0.00 33 1011.2
20240614034604 17 9 4.8 4.8 0.00 0.00 0.00 33 1011.1
20240614034104 17 9 4.8 8.0 0.00 0.00 0.00 32 1011.0
20240614033604 17 10 3.2 4.8 0.00 0.00 0.00 32 1010.9
20240614033104 17 24 3.2 8.0 0.00 0.00 0.00 32 1010.7
20240614031604 18 21 3.2 8.0 0.00 0.00 0.00 32 1010.5
20240614031104 18 16 3.2 8.0 0.00 0.00 0.00 32 1010.4
20240614030604 18 17 3.2 4.8 0.00 0.00 0.00 31 1010.3
20240614030104 18 29 3.2 4.8 0.00 0.00 0.00 31 1010.3
20240614024604 20 29 1.6 4.8 0.00 0.00 0.00 30 1010.0
20240614024104 20 35 1.6 4.8 0.00 0.00 0.00 30 1010.0
20240614021604 21 12 1.6 4.8 0.00 0.00 0.00 32 1010.0
20240614021104 21 7 3.2 4.8 0.00 0.00 0.00 31 1010.0
20240614020604 21 7 1.6 4.8 0.00 0.00 0.00 30 1010.0
20240614020104 22 9 3.2 4.8 0.00 0.00 0.00 29 1010.0
20240614014604 22 18 3.2 4.8 0.00 0.00 0.00 27 1009.9
20240614014104 23 7 1.6 4.8 0.00 0.00 0.00 26 1009.9
20240614013604 23 353 1.6 4.8 0.00 0.00 0.00 25 1009.9
20240614013104 23 348 1.6 4.8 0.00 0.00 0.00 25 1009.9
20240614011604 24 11 3.2 8.0 0.00 0.00 0.00 25 1009.8
20240614011105 24 340 1.6 4.8 0.00 0.00 0.00 23 1009.8
20240614010104 25 307 3.2 11.3 0.00 0.00 0.00 22 1009.7
20240614004604 25 307 3.2 4.8 0.00 0.00 0.00 21 1009.7
20240614004104 25 214 1.6 8.0 0.00 0.00 0.00 22 1009.7
20240614003104 25 287 3.2 16.1 0.00 0.00 0.00 20 1009.9
20240614001103 26 272 3.2 9.7 0.00 0.00 0.00 18 1010.0
20240614000604 26 303 3.2 9.7 0.00 0.00 0.00 18 1010.0
20240614000104 26 270 6.4 19.3 0.00 0.00 0.00 18 1010.0
20240613234604 27 299 3.2 19.3 0.00 0.00 0.00 19 1010.0
20240613234104 27 317 4.8 12.9 0.00 0.00 0.00 19 1009.9
20240613233106 27 283 4.8 14.5 0.00 0.00 0.00 18 1009.9
20240613231604 27 121 3.2 11.3 0.00 0.00 0.00 20 1010.1
20240613231104 27 317 3.2 12.9 0.00 0.00 0.00 20 1010.2
20240613230104 27 236 4.8 20.9 0.00 0.00 0.00 22 1010.3
20240613224605 28 243 8.0 24.1 0.00 0.00 0.00 19 1010.5
20240613223105 28 235 4.8 12.9 0.00 0.00 0.00 20 1010.5
20240613221605 28 296 8.0 25.7 0.00 0.00 0.00 19 1010.8
20240613220605 28 262 4.8 11.3 0.00 0.00 0.00 20 1010.8
20240613220105 28 245 8.0 20.9 0.00 0.00 0.00 19 1010.9
20240613214605 28 258 4.8 19.3 0.00 0.00 0.00 19 1011.1
20240613214105 28 273 8.0 22.5 0.00 0.00 0.00 19 1011.1
20240613213605 28 231 4.8 16.1 0.00 0.00 0.00 21 1011.2
20240613213105 28 237 8.0 19.3 0.00 0.00 0.00 19 1011.3
20240613211604 28 269 9.7 19.3 0.00 0.00 0.00 19 1011.4
20240613211105 28 204 3.2 19.3 0.00 0.00 0.00 20 1011.4
20240613210605 28 319 6.4 11.3 0.00 0.00 0.00 17 1011.5
20240613210105 28 249 9.7 20.9 0.00 0.00 0.00 17 1011.4
20240613204605 28 250 8.0 20.9 0.00 0.00 0.00 20 1011.7
20240613204105 28 261 8.0 20.9 0.00 0.00 0.00 20 1011.7
20240613203105 28 280 6.4 22.5 0.00 0.00 0.00 23 1011.7
20240613201605 28 268 8.0 16.1 0.00 0.00 0.00 18 1011.6
20240613200604 28 256 4.8 16.1 0.00 0.00 0.00 20 1011.8
20240613200105 28 286 4.8 20.9 0.00 0.00 0.00 23 1011.8
20240613194605 28 265 4.8 14.5 0.00 0.00 0.00 21 1011.9
20240613194104 28 265 8.0 19.3 0.00 0.00 0.00 18 1011.8
20240613193604 28 277 8.0 20.9 0.00 0.00 0.00 21 1011.8
20240613193105 28 234 9.7 22.5 0.00 0.00 0.00 19 1011.9
20240613191605 28 258 4.8 19.3 0.00 0.00 0.00 23 1012.1
20240613191105 28 283 6.4 19.3 0.00 0.00 0.00 19 1012.1
20240613190605 28 239 8.0 16.1 0.00 0.00 0.00 22 1012.1
20240613190105 28 236 4.8 19.3 0.00 0.00 0.00 21 1012.2
20240613184604 28 261 8.0 16.1 0.00 0.00 0.00 20 1012.2
20240613184104 28 277 4.8 11.3 0.00 0.00 0.00 23 1012.2
20240613183605 28 36 3.2 16.1 0.00 0.00 0.00 22 1012.3
20240613183105 27 266 4.8 25.7 0.00 0.00 0.00 22 1012.3
20240613181605 27 248 8.0 19.3 0.00 0.00 0.00 21 1012.4
20240613181105 27 243 6.4 19.3 0.00 0.00 0.00 23 1012.3
20240613180605 27 251 8.0 19.3 0.00 0.00 0.00 25 1012.3
20240613180105 27 268 4.8 19.3 0.00 0.00 0.00 23 1012.4
20240613174605 27 282 6.4 14.5 0.00 0.00 0.00 28 1012.5
20240613174105 27 211 8.0 16.1 0.00 0.00 0.00 22 1012.6
20240613173605 27 233 4.8 16.1 0.00 0.00 0.00 25 1012.6
20240613173105 27 251 3.2 19.3 0.00 0.00 0.00 26 1012.6
20240613171605 27 257 3.2 11.3 0.00 0.00 0.00 27 1012.7
20240613171104 27 258 3.2 12.9 0.00 0.00 0.00 26 1012.6
20240613170605 27 265 3.2 8.0 0.00 0.00 0.00 25 1012.7
20240613170104 26 250 4.8 11.3 0.00 0.00 0.00 25 1012.7
20240613164605 26 226 3.2 9.7 0.00 0.00 0.00 20 1012.9
20240613164105 26 259 3.2 9.7 0.00 0.00 0.00 22 1012.9
20240613163605 25 237 4.8 11.3 0.00 0.00 0.00 25 1012.8
20240613163104 25 305 4.8 14.5 0.00 0.00 0.00 23 1012.8
20240613161604 25 272 4.8 9.7 0.00 0.00 0.00 25 1012.8
20240613161104 25 263 3.2 9.7 0.00 0.00 0.00 27 1012.7
20240613160604 25 238 4.8 11.3 0.00 0.00 0.00 28 1012.7
20240613154605 23 244 3.2 8.0 0.00 0.00 0.00 23 1012.7
20240613153605 23 167 1.6 4.8 0.00 0.00 0.00 37 1012.6
20240613153105 23 180 1.6 4.8 0.00 0.00 0.00 37 1012.6
20240613151604 22 158 1.6 3.2 0.00 0.00 0.00 42 1012.6
20240613150105 21 185 1.6 4.8 0.00 0.00 0.00 44 1012.7
20240613144604 20 182 0.0 4.8 0.00 0.00 0.00 50 1012.7
20240613144105 20 160 1.6 4.8 0.00 0.00 0.00 46 1012.7
20240613143605 19 191 4.8 4.8 0.00 0.00 0.00 46 1012.8
20240613143105 19 146 3.2 4.8 0.00 0.00 0.00 44 1012.7
20240613141605 18 42 1.6 4.8 0.00 0.00 0.00 44 1012.9
20240613141104 18 56 3.2 4.8 0.00 0.00 0.00 42 1012.7
20240613140604 17 87 3.2 8.0 0.00 0.00 0.00 40 1012.7
20240613140105 17 13 3.2 4.8 0.00 0.00 0.00 50 1012.8
20240613134604 16 71 4.8 9.7 0.00 0.00 0.00 41 1012.7
20240613133604 15 70 3.2 4.8 0.00 0.00 0.00 54 1012.6
20240613133105 15 80 3.2 4.8 0.00 0.00 0.00 48 1012.6